IGO355E VOGO-VAPO

Flight info

Callsign IGO355E
Flight time 0h 45m
Altitude 28000
Route EPKOS2B EPKOS W128 AVKOR DCT 183223N0735822E 183206N0740756E DCT 183444N0740802E
Aircraft A20N/M-SDE2E3FGHIRWXY/LB1

Departure

Time 2026-04-27 12:10
Airport Goa Dabolim International Airport (VOGO)

Arrival

Time 2026-04-27 12:56
Airport Pune International Airport (VAPO)
Time Latitude Longitude Altitude Speed Heading
2026-04-27 11:47 15.38430 73.83799 178 ft 0 kts 348°
2026-04-27 11:56 15.38420 73.83801 178 ft 2 kts 347°
2026-04-27 11:56 15.38413 73.83802 178 ft 0 kts 348°
2026-04-27 11:57 15.38411 73.83803 178 ft 0 kts 348°
2026-04-27 11:58 15.38400 73.83805 178 ft 6 kts 349°
2026-04-27 11:58 15.38370 73.83810 178 ft 2 kts
2026-04-27 11:58 15.38360 73.83809 178 ft 1 kts 30°
2026-04-27 11:58 15.38352 73.83803 178 ft 1 kts 65°
2026-04-27 11:59 15.38349 73.83794 177 ft 1 kts 77°
2026-04-27 11:59 15.38346 73.83778 177 ft 1 kts 77°
2026-04-27 11:59 15.38346 73.83779 177 ft 0 kts 77°
2026-04-27 12:04 15.38348 73.83788 177 ft 3 kts 77°
2026-04-27 12:04 15.38354 73.83817 178 ft 5 kts 77°
2026-04-27 12:04 15.38362 73.83856 179 ft 6 kts 79°
2026-04-27 12:04 15.38370 73.83901 181 ft 7 kts 79°
2026-04-27 12:05 15.38379 73.83951 183 ft 7 kts 79°
2026-04-27 12:05 15.38388 73.84007 185 ft 8 kts 80°
2026-04-27 12:05 15.38399 73.84069 190 ft 9 kts 79°
2026-04-27 12:05 15.38411 73.84135 197 ft 10 kts 79°
2026-04-27 12:06 15.38425 73.84208 205 ft 11 kts 79°
2026-04-27 12:06 15.38439 73.84286 203 ft 11 kts 79°
2026-04-27 12:06 15.38455 73.84369 205 ft 12 kts 79°
2026-04-27 12:06 15.38470 73.84457 207 ft 13 kts 80°
2026-04-27 12:07 15.38488 73.84551 206 ft 13 kts 78°
2026-04-27 12:07 15.38507 73.84648 209 ft 14 kts 78°
2026-04-27 12:07 15.38526 73.84748 217 ft 14 kts 79°
2026-04-27 12:07 15.38500 73.84802 215 ft 8 kts 155°
2026-04-27 12:08 15.38432 73.84816 221 ft 12 kts 174°
2026-04-27 12:08 15.38373 73.84770 211 ft 12 kts 250°
2026-04-27 12:08 15.38366 73.84742 210 ft 0 kts 257°
2026-04-27 12:09 15.38365 73.84737 210 ft 4 kts 257°
2026-04-27 12:09 15.38323 73.84521 207 ft 66 kts 258°
2026-04-27 12:10 15.38184 73.83807 174 ft 129 kts 258°
2026-04-27 12:10 15.37975 73.82743 202 ft 168 kts 258°
2026-04-27 12:10 15.37733 73.81512 501 ft 180 kts 258°
2026-04-27 12:10 15.37494 73.80217 1080 ft 182 kts 260°
2026-04-27 12:11 15.37283 73.78891 1748 ft 192 kts 262°
2026-04-27 12:11 15.37083 73.77425 2180 ft 222 kts 263°
2026-04-27 12:11 15.36844 73.75745 2599 ft 248 kts 260°
2026-04-27 12:11 15.36534 73.73905 3144 ft 268 kts 265°
2026-04-27 12:12 15.36799 73.71979 3923 ft 275 kts 293°
2026-04-27 12:12 15.37863 73.70375 4746 ft 276 kts 320°
2026-04-27 12:12 15.39516 73.69430 5648 ft 272 kts 347°
2026-04-27 12:12 15.41400 73.69299 6423 ft 274 kts
2026-04-27 12:13 15.43293 73.69582 6784 ft 277 kts 11°
2026-04-27 12:13 15.45195 73.69930 6945 ft 277 kts
2026-04-27 12:13 15.47118 73.70210 6835 ft 279 kts
2026-04-27 12:13 15.49036 73.70390 6776 ft 276 kts
2026-04-27 12:14 15.50957 73.70502 6777 ft 277 kts
2026-04-27 12:14 15.52886 73.70584 6775 ft 278 kts
2026-04-27 12:14 15.54816 73.70653 6773 ft 277 kts
2026-04-27 12:14 15.56742 73.70721 6776 ft 277 kts
2026-04-27 12:15 15.58669 73.70790 6793 ft 277 kts
2026-04-27 12:15 15.60588 73.70963 6792 ft 277 kts
2026-04-27 12:15 15.62491 73.71283 6794 ft 277 kts
2026-04-27 12:15 15.64390 73.71624 6795 ft 277 kts 10°
2026-04-27 12:16 15.66280 73.71977 6796 ft 276 kts 10°
2026-04-27 12:16 15.68144 73.72333 6800 ft 277 kts 10°
2026-04-27 12:16 15.70041 73.72698 6799 ft 277 kts 10°
2026-04-27 12:16 15.71934 73.73062 6797 ft 277 kts 10°
2026-04-27 12:17 15.73829 73.73427 6800 ft 277 kts 10°
2026-04-27 12:17 15.75723 73.73791 6802 ft 277 kts 10°
2026-04-27 12:17 15.77623 73.74155 6801 ft 278 kts 10°
2026-04-27 12:17 15.79520 73.74518 6799 ft 276 kts 10°
2026-04-27 12:18 15.81416 73.74881 6801 ft 277 kts 10°
2026-04-27 12:18 15.83315 73.75243 6801 ft 277 kts 10°
2026-04-27 12:18 15.85208 73.75605 6800 ft 276 kts 10°
2026-04-27 12:18 15.87100 73.75966 6800 ft 277 kts 10°
2026-04-27 12:19 15.88994 73.76327 6800 ft 277 kts 10°
2026-04-27 12:19 15.90862 73.76684 6800 ft 277 kts 10°
2026-04-27 12:19 15.92753 73.77044 6801 ft 276 kts 10°
2026-04-27 12:19 15.94650 73.77406 6805 ft 277 kts 11°
2026-04-27 12:20 15.96515 73.77928 6878 ft 279 kts 19°
2026-04-27 12:20 15.98358 73.78592 7371 ft 282 kts 19°
2026-04-27 12:20 16.00203 73.79270 8302 ft 281 kts 20°
2026-04-27 12:20 16.02061 73.79957 9158 ft 285 kts 20°
2026-04-27 12:21 16.03947 73.80656 9954 ft 291 kts 20°
2026-04-27 12:21 16.05917 73.81388 10341 ft 312 kts 21°
2026-04-27 12:21 16.08038 73.82176 10584 ft 335 kts 21°
2026-04-27 12:21 16.10273 73.83004 11137 ft 345 kts 21°
2026-04-27 12:22 16.12543 73.83843 11918 ft 348 kts 21°
2026-04-27 12:22 16.14838 73.84691 12666 ft 352 kts 21°
2026-04-27 12:22 16.17163 73.85549 13364 ft 357 kts 21°
2026-04-27 12:22 16.19519 73.86419 14038 ft 362 kts 21°
2026-04-27 12:23 16.21873 73.87290 14661 ft 366 kts 21°
2026-04-27 12:23 16.24321 73.88201 15270 ft 372 kts 21°
2026-04-27 12:23 16.26737 73.89102 15862 ft 377 kts 20°
2026-04-27 12:23 16.29220 73.90029 16459 ft 381 kts 20°
2026-04-27 12:24 16.31732 73.90966 17052 ft 386 kts 20°
2026-04-27 12:24 16.34277 73.91914 17629 ft 391 kts 19°
2026-04-27 12:24 16.36846 73.92870 18199 ft 395 kts 19°
2026-04-27 12:24 16.39451 73.93839 18704 ft 399 kts 19°
2026-04-27 12:25 16.42079 73.94815 19194 ft 403 kts 19°
2026-04-27 12:25 16.44734 73.95802 19725 ft 406 kts 18°
2026-04-27 12:25 16.47408 73.96796 20234 ft 410 kts 18°
2026-04-27 12:25 16.50108 73.97797 20724 ft 414 kts 18°
2026-04-27 12:26 16.52829 73.98806 21229 ft 417 kts 18°
2026-04-27 12:26 16.55577 73.99825 21739 ft 421 kts 18°
2026-04-27 12:26 16.58309 74.00836 22207 ft 424 kts 18°
2026-04-27 12:26 16.61140 74.01884 22707 ft 428 kts 18°
2026-04-27 12:27 16.63923 74.02914 23153 ft 432 kts 18°
2026-04-27 12:27 16.66772 74.03970 23573 ft 437 kts 18°
2026-04-27 12:27 16.69644 74.05035 24004 ft 439 kts 17°
2026-04-27 12:27 16.72532 74.06106 24370 ft 443 kts 17°
2026-04-27 12:28 16.75446 74.07188 24721 ft 446 kts 17°
2026-04-27 12:28 16.78384 74.08280 25084 ft 449 kts 17°
2026-04-27 12:28 16.81339 74.09379 25435 ft 453 kts 17°
2026-04-27 12:28 16.84311 74.10482 25803 ft 454 kts 16°
2026-04-27 12:29 16.87367 74.11340 26084 ft 454 kts
2026-04-27 12:29 16.90503 74.11635 26366 ft 454 kts 356°
2026-04-27 12:29 16.93660 74.11401 26468 ft 457 kts 348°
2026-04-27 12:29 16.96837 74.10902 26564 ft 466 kts 347°
2026-04-27 12:30 17.00070 74.10395 26630 ft 474 kts 348°
2026-04-27 12:30 17.03360 74.09914 26713 ft 482 kts 348°
2026-04-27 12:30 17.06708 74.09452 26781 ft 489 kts 349°
2026-04-27 12:30 17.10100 74.09002 26853 ft 495 kts 349°
2026-04-27 12:31 17.13541 74.08552 26917 ft 500 kts 349°
2026-04-27 12:31 17.16962 74.08106 26961 ft 505 kts 349°
2026-04-27 12:31 17.20504 74.07643 27000 ft 508 kts 349°
2026-04-27 12:31 17.23973 74.07189 27037 ft 510 kts 349°
2026-04-27 12:32 17.27496 74.06726 27119 ft 510 kts 349°
2026-04-27 12:32 17.31017 74.06263 27239 ft 510 kts 349°
2026-04-27 12:32 17.34536 74.05800 27361 ft 510 kts 349°
2026-04-27 12:32 17.38052 74.05336 27465 ft 510 kts 349°
2026-04-27 12:33 17.41568 74.04872 27667 ft 507 kts 349°
2026-04-27 12:33 17.45059 74.04412 27801 ft 503 kts 349°
2026-04-27 12:33 17.48506 74.03957 27830 ft 499 kts 349°
2026-04-27 12:33 17.51955 74.03500 27810 ft 497 kts 349°
2026-04-27 12:34 17.55356 74.03048 27730 ft 487 kts 348°
2026-04-27 12:34 17.58688 74.02606 27373 ft 478 kts 348°
2026-04-27 12:34 17.61958 74.02170 26772 ft 471 kts 349°
2026-04-27 12:34 17.65199 74.01732 26020 ft 469 kts 349°
2026-04-27 12:35 17.68421 74.01292 25291 ft 466 kts 349°
2026-04-27 12:35 17.71623 74.00853 24657 ft 461 kts 349°
2026-04-27 12:35 17.74791 74.00420 23985 ft 458 kts 350°
2026-04-27 12:35 17.77940 73.99989 23349 ft 454 kts 350°
2026-04-27 12:36 17.81060 73.99564 22649 ft 450 kts 351°
2026-04-27 12:36 17.84145 73.99147 22004 ft 444 kts 351°
2026-04-27 12:36 17.87186 73.98737 21360 ft 439 kts 351°
2026-04-27 12:36 17.90211 73.98431 20771 ft 435 kts 359°
2026-04-27 12:37 17.93188 73.98814 20198 ft 431 kts 12°
2026-04-27 12:37 17.96102 73.99585 19474 ft 431 kts 13°
2026-04-27 12:37 17.98990 74.00362 18892 ft 426 kts 13°
2026-04-27 12:37 18.01852 74.01094 18346 ft 421 kts 12°
2026-04-27 12:38 18.04689 74.01781 17756 ft 415 kts 12°
2026-04-27 12:38 18.07451 74.02429 17145 ft 410 kts 12°
2026-04-27 12:38 18.10224 74.03070 16503 ft 406 kts 12°
2026-04-27 12:38 18.12965 74.03700 15884 ft 401 kts 12°
2026-04-27 12:39 18.15674 74.04324 15281 ft 397 kts 12°
2026-04-27 12:39 18.18354 74.04944 14689 ft 392 kts 12°
2026-04-27 12:39 18.21004 74.05559 14118 ft 388 kts 12°
2026-04-27 12:39 18.23628 74.06168 13534 ft 384 kts 12°
2026-04-27 12:40 18.26226 74.06775 12926 ft 380 kts 12°
2026-04-27 12:40 18.28784 74.07377 12502 ft 371 kts 12°
2026-04-27 12:40 18.31253 74.07961 12350 ft 356 kts 12°
2026-04-27 12:40 18.33618 74.08505 12199 ft 341 kts 11°
2026-04-27 12:41 18.35903 74.08955 12072 ft 327 kts
2026-04-27 12:41 18.38102 74.09294 11924 ft 311 kts
2026-04-27 12:41 18.40177 74.09600 11770 ft 292 kts
2026-04-27 12:41 18.42126 74.09892 11593 ft 276 kts
2026-04-27 12:42 18.44038 74.10184 10871 ft 282 kts
2026-04-27 12:42 18.46022 74.10493 9984 ft 294 kts
2026-04-27 12:42 18.48090 74.10818 8950 ft 307 kts
2026-04-27 12:42 18.50248 74.11161 7799 ft 320 kts
2026-04-27 12:43 18.52472 74.11468 7108 ft 317 kts 358°
2026-04-27 12:43 18.54540 74.11038 6912 ft 294 kts 334°
2026-04-27 12:43 18.56096 74.09828 6760 ft 275 kts 311°
2026-04-27 12:43 18.57018 74.08131 6614 ft 258 kts 287°
2026-04-27 12:44 18.57326 74.06328 6458 ft 243 kts 277°
2026-04-27 12:44 18.57434 74.04612 6333 ft 228 kts 275°
2026-04-27 12:44 18.57533 74.03018 6073 ft 207 kts 276°
2026-04-27 12:44 18.57624 74.01561 5662 ft 197 kts 276°
2026-04-27 12:45 18.57707 74.00196 5469 ft 174 kts 277°
2026-04-27 12:45 18.57784 73.99004 5305 ft 155 kts 277°
2026-04-27 12:45 18.57853 73.97893 4944 ft 150 kts 277°
2026-04-27 12:45 18.57925 73.96791 4473 ft 152 kts 279°
2026-04-27 12:46 18.58311 73.95775 3989 ft 150 kts 302°
2026-04-27 12:46 18.59007 73.94981 3531 ft 149 kts 323°
2026-04-27 12:46 18.59916 73.94474 3118 ft 150 kts 338°
2026-04-27 12:46 18.60949 73.94282 3114 ft 151 kts 351°
2026-04-27 12:47 18.61996 73.94195 3176 ft 147 kts 351°
2026-04-27 12:47 18.63026 73.94316 3177 ft 155 kts 17°
2026-04-27 12:47 18.63968 73.94885 3172 ft 153 kts 28°
2026-04-27 12:47 18.64838 73.95570 3171 ft 164 kts 43°
2026-04-27 12:48 18.65391 73.96632 3170 ft 163 kts 63°
2026-04-27 12:48 18.65832 73.97726 3179 ft 166 kts 63°
2026-04-27 12:48 18.66282 73.98869 3165 ft 168 kts 63°
2026-04-27 12:48 18.66721 74.00003 3174 ft 166 kts 63°
2026-04-27 12:49 18.67155 74.01117 3152 ft 163 kts 63°
2026-04-27 12:49 18.67420 74.02279 3165 ft 168 kts 94°
2026-04-27 12:49 18.66916 74.03389 3169 ft 172 kts 138°
2026-04-27 12:49 18.65990 74.04160 3170 ft 170 kts 138°
2026-04-27 12:50 18.65175 74.05063 3169 ft 169 kts 130°
2026-04-27 12:50 18.64422 74.05988 3167 ft 164 kts 130°
2026-04-27 12:50 18.63677 74.06911 3176 ft 170 kts 130°
2026-04-27 12:50 18.62915 74.07884 3168 ft 172 kts 131°
2026-04-27 12:51 18.61932 74.08550 3182 ft 169 kts 173°
2026-04-27 12:51 18.60818 74.08408 3186 ft 158 kts 204°
2026-04-27 12:51 18.59804 74.07995 3176 ft 157 kts 206°
2026-04-27 12:51 18.58778 74.07542 3181 ft 161 kts 206°
2026-04-27 12:52 18.57850 74.06969 3171 ft 148 kts 237°
2026-04-27 12:52 18.57561 74.05973 3187 ft 142 kts 272°
2026-04-27 12:52 18.57566 74.04919 3170 ft 142 kts 270°
2026-04-27 12:52 18.57562 74.03888 3181 ft 138 kts 272°
2026-04-27 12:53 18.57629 74.01840 3177 ft 145 kts 273°
2026-04-27 12:53 18.57686 74.00775 3177 ft 142 kts 275°
2026-04-27 12:53 18.57747 73.99756 3128 ft 138 kts 275°
2026-04-27 12:54 18.57808 73.98745 2971 ft 139 kts 275°
2026-04-27 12:54 18.57874 73.97699 2803 ft 145 kts 275°
2026-04-27 12:54 18.57941 73.96614 2619 ft 150 kts 274°
2026-04-27 12:54 18.58008 73.95541 2422 ft 143 kts 274°
2026-04-27 12:55 18.58073 73.94480 2254 ft 144 kts 275°
2026-04-27 12:55 18.58137 73.93434 2067 ft 144 kts 275°
2026-04-27 12:55 18.58204 73.92427 1928 ft 129 kts 274°
2026-04-27 12:55 18.58246 73.91690 1924 ft 70 kts 273°
2026-04-27 12:56 18.58272 73.91291 1923 ft 29 kts 274°
2026-04-27 12:56 18.58270 73.91210 1923 ft 17 kts 259°
2026-04-27 12:56 18.58236 73.91121 1923 ft 12 kts 246°
2026-04-27 12:56 18.58187 73.91045 1923 ft 14 kts 209°
2026-04-27 12:57 18.58099 73.91023 1924 ft 13 kts 188°
2026-04-27 12:57 18.58054 73.90996 1924 ft 5 kts 243°
2026-04-27 12:57 18.58003 73.90966 1924 ft 9 kts 189°
2026-04-27 12:57 18.57994 73.90964 1924 ft 0 kts 189°